Wind_Speed
19 23 26 28 30 31 34 36 37 38 41 43 39 37 32 27 25 22 20 20 18 14 12 12 13 11 14 18 19 19 17 16 16 15 13 14 15 17 18 17 17 17 18
24 25 27 32 36 31 29 34 31 27 29 38 35 35 33 24 24 20 20 19 17 14 12 14 14 14 15 17 19 19 18 16 15 16 18 17 15 15 15 16 14 14 15
29 30 31 33 32 30 29 24 23 33 33 35 32 33 29 23 25 21 19 19 18 14 15 16 14 15 15 18 18 18 19 18 19 16 17 20 20 18 18 17 18 16 16
33 34 36 36 35 34 30 31 39 38 35 34 35 32 29 26 26 19 19 21 17 19 18 17 17 17 19 21 21 21 20 21 22 21 20 20 19 20 22 21 21 18 19
34 38 41 39 36 30 31 31 35 35 36 36 34 32 28 27 19 19 19 21 23 21 20 18 18 20 23 24 26 26 25 24 24 24 23 23 22 21 18 17 19 19 21
41 46 43 38 32 29 31 32 33 36 34 35 35 32 29 25 23 18 20 21 22 23 19 20 23 24 24 28 30 27 26 27 27 27 26 24 24 21 20 19 19 19 20
35 39 38 35 32 31 32 31 37 32 30 33 32 33 31 21 18 16 19 20 20 19 20 22 21 25 28 31 28 25 23 24 26 29 27 27 25 23 23 24 24 22 21
34 30 39 34 33 37 36 39 35 32 35 34 33 34 24 11 13 14 17 16 16 20 19 21 28 30 29 27 27 26 26 25 24 22 25 27 27 27 28 29 29 27 28
29 31 37 31 40 39 37 35 31 36 36 30 31 15 10 9 10 10 10 14 15 15 19 24 27 25 25 26 29 28 29 28 26 24 24 26 28 31 32 31 30 30 32
22 19 22 34 39 37 42 33 32 37 33 33 16 12 10 10 11 12 10 10 14 22 25 25 23 24 27 26 28 30 31 32 32 31 31 32 32 32 33 32 34 36 36
21 20 23 19 34 24 16 20 24 29 25 21 15 11 8 5 4 6 12 16 21 22 20 20 21 25 25 25 27 28 29 31 33 35 37 37 36 34 37 41 41 43 41
15 19 25 19 30 32 27 13 27 25 17 15 13 11 9 10 11 11 16 15 17 17 20 17 17 18 20 23 25 27 29 29 29 32 34 37 39 39 38 37 37 39 40
16 14 16 30 8 8 9 15 21 16 10 7 9 9 8 9 9 9 13 16 13 12 15 18 22 25 25 26 27 29 30 31 32 34 36 37 39 39 39 40 39 40 40
14 7 6 12 12 10 13 14 15 11 12 11 8 4 5 7 10 13 11 8 13 16 20 24 26 27 29 30 32 33 34 35 37 38 39 40 40 42 44 45 45 45 43
5 17 14 13 15 17 14 13 13 11 8 7 7 3 7 10 9 8 10 13 16 21 24 26 30 32 34 34 36 38 39 39 40 40 40 41 42 44 45 46 46 46 45
14 13 13 11 11 11 11 8 6 6 3 3 4 8 7 3 4 8 12 17 22 25 29 32 33 35 37 40 41 42 43 43 43 43 44 44 44 43 43 42 42 43 45
14 13 12 9 8 6 4 3 3 4 7 4 7 6 1 5 9 14 19 23 27 29 32 35 37 38 40 41 43 45 45 45 44 45 45 46 45 44 43 42 42 42 43
8 7 5 3 1 1 1 2 3 4 7 7 5 2 5 9 14 19 23 27 30 33 36 38 39 41 42 44 46 47 47 46 45 45 46 46 44 41 42 43 45 46 47
10 7 4 2 1 2 1 1 3 5 6 4 3 5 9 15 19 24 27 31 33 36 38 40 42 44 45 47 47 47 46 45 44 46 46 43 40 42 44 46 48 49 51
8 5 4 3 2 4 4 3 2 1 3 4 7 12 16 21 24 28 31 35 37 39 42 44 46 46 47 47 46 46 44 44 46 46 42 40 42 44 47 50 54 55 57
7 7 5 3 2 4 1 1 2 2 5 8 13 18 22 25 28 32 35 39 42 44 46 47 48 49 48 46 45 44 44 46 47 42 43 46 49 52 56 58 60 63 65
6 6 4 2 2 2 3 4 4 6 10 14 20 23 27 31 34 37 40 43 45 48 49 51 51 50 48 46 46 47 48 50 47 46 48 50 53 54 57 60 64 67 69
4 4 4 3 3 4 6 7 9 11 17 22 26 30 33 37 40 43 46 48 49 50 51 50 48 51 49 49 51 52 53 51 50 51 53 55 56 58 62 65 64 65 67
7 7 6 5 7 7 9 10 15 20 23 28 33 36 38 40 44 47 50 51 51 51 50 51 52 53 52 54 56 56 57 56 57 59 62 64 65 68 70 70 70 72 73
9 8 9 7 7 9 11 14 21 23 28 33 38 39 41 44 48 51 53 53 53 51 53 51 55 56 56 58 60 59 59 62 65 65 64 66 70 71 76 80 82 76 73
10 9 7 8 10 13 16 20 25 29 34 38 41 42 44 49 53 52 51 51 48 50 58 57 57 57 60 62 62 61 64 67 69 71 71 72 74 78 82 85 78 74 77
Wind_Direction
267 275 275 272 280 281 286 295 295 291 280 282 288 295 297 303 309 309 296 283 271 266 273 286 291 290 298 299 303 304 303 301 296 290 280 281 285 286 285 281 279 283 286
267 270 269 270 277 281 278 294 285 309 272 289 284 293 299 287 302 295 290 270 265 271 281 281 283 300 312 315 317 313 306 300 297 293 292 288 286 285 283 284 287 286 289
267 271 278 280 276 270 278 280 277 295 288 283 282 289 294 285 294 284 272 256 253 260 267 272 281 295 307 315 312 308 302 298 296 300 306 297 292 286 282 281 279 285 289
278 278 278 281 278 280 284 278 277 282 281 280 274 284 285 283 284 271 255 245 250 254 258 268 281 296 301 301 303 298 293 289 284 288 290 295 288 288 286 288 282 278 280
274 279 282 281 284 281 275 272 271 273 273 275 274 274 281 270 271 249 241 238 245 252 262 276 291 295 298 299 301 300 295 281 281 281 281 283 287 286 283 284 288 287 286
282 281 281 280 279 269 261 266 268 265 266 262 261 271 265 257 262 244 228 236 240 254 272 286 287 294 298 304 306 301 300 294 286 284 275 268 270 274 269 275 286 291 292
285 272 271 272 272 268 262 256 254 256 257 260 266 258 255 238 236 222 227 235 249 266 271 281 291 287 296 300 306 311 309 308 292 282 283 280 272 267 263 270 278 282 282
272 249 249 267 255 257 254 256 258 254 252 252 248 256 240 185 205 222 229 245 259 266 278 286 291 296 302 302 307 314 315 310 306 290 278 277 278 278 274 271 273 279 283
248 225 237 236 247 243 245 250 268 264 240 239 242 202 171 200 210 224 242 246 265 289 277 292 298 301 307 305 307 306 303 310 307 301 290 284 283 281 282 284 282 287 288
268 280 260 202 209 204 246 243 248 240 231 227 186 166 180 200 215 231 243 279 267 263 287 295 301 298 302 302 307 308 305 306 302 296 293 295 289 282 278 280 282 287 285
254 240 221 223 234 213 221 228 227 223 216 168 159 160 188 207 260 265 256 280 285 288 297 304 299 299 306 312 313 313 311 306 302 301 300 296 293 288 285 284 286 287 285
229 226 234 251 255 257 248 217 231 219 150 137 137 133 171 209 235 269 270 276 303 303 298 309 318 320 321 320 318 315 312 310 308 304 302 301 301 301 299 296 292 290 287
213 220 237 247 282 254 158 105 89 80 89 131 181 210 239 252 259 284 274 291 313 321 325 321 319 319 317 312 311 309 309 307 304 301 299 296 296 295 295 295 291 287 286
221 210 41 46 80 74 95 104 113 142 170 191 211 228 268 277 289 292 306 332 334 327 321 322 320 314 314 314 312 309 305 303 299 296 295 296 297 295 294 298 296 291 287
57 93 109 112 125 135 139 142 171 173 174 174 183 269 309 327 320 335 328 324 323 316 316 317 316 317 314 313 311 309 307 306 303 300 300 299 297 296 294 291 290 289 286
119 134 139 137 140 144 155 158 185 198 152 150 270 292 310 275 306 307 315 314 314 314 317 315 315 313 313 313 312 309 308 305 302 300 300 300 299 299 298 295 291 288 285
123 130 132 137 151 153 138 171 153 222 208 266 266 276 232 322 316 314 313 308 308 311 311 310 310 309 310 310 308 307 306 304 305 304 302 300 300 301 299 298 296 294 293
124 132 129 135 128 6 303 328 282 231 236 284 294 287 305 307 306 306 304 304 309 311 309 308 307 307 307 309 308 308 306 306 303 302 301 301 300 299 299 297 296 295 293
149 138 123 113 252 266 324 320 273 265 290 272 275 287 298 300 298 300 302 306 307 308 307 307 307 308 311 310 308 305 304 302 302 304 303 301 299 296 295 294 293 291 289
149 134 146 103 36 327 335 320 339 240 231 282 290 294 296 293 298 299 302 303 305 306 308 310 312 312 310 308 305 303 304 303 304 304 299 294 291 291 292 293 295 295 295
84 78 82 98 5 326 19 130 125 273 282 292 289 285 288 294 299 300 303 307 308 309 311 313 312 309 309 308 306 305 303 303 304 299 295 293 293 294 296 297 296 297 297
42 36 24 19 344 270 191 234 247 263 278 283 287 293 297 302 302 305 307 309 310 313 315 311 309 310 310 309 307 305 305 305 302 299 297 297 296 297 298 298 296 294 294
358 344 327 285 250 240 227 265 276 287 291 295 297 300 303 305 307 311 312 312 313 312 309 309 310 313 308 309 307 306 306 304 300 297 295 295 295 293 297 299 297 294 292
316 313 294 295 287 271 255 271 285 290 293 299 299 301 304 308 310 311 310 311 311 311 311 312 313 313 310 308 309 309 306 303 301 299 296 294 294 293 296 299 296 295 296
298 288 283 289 278 274 270 279 284 292 290 295 297 300 305 309 312 311 311 313 313 312 315 314 313 312 309 310 309 307 304 302 300 298 296 297 297 296 298 297 296 298 300
271 268 262 251 265 276 287 292 292 292 293 294 298 297 306 311 311 311 313 314 313 315 315 314 310 309 308 307 306 304 302 301 300 300 298 298 301 303 303 302 302 302 301
Height
5833 5834 5834 5834 5833 5833 5833 5833 5832 5831 5831 5831 5832 5833 5832 5830 5831 5832 5833 5834 5834 5833 5833 5833 5834 5831 5831 5830 5829 5828 5827 5826 5825 5824 5821 5821 5821 5821 5819 5819 5818 5817 5817
5828 5829 5829 5828 5828 5829 5828 5828 5828 5828 5830 5829 5828 5829 5830 5828 5829 5829 5830 5831 5832 5832 5831 5831 5831 5832 5829 5828 5827 5826 5825 5823 5821 5821 5821 5819 5817 5816 5816 5816 5815 5815 5814
5822 5824 5824 5824 5825 5824 5825 5825 5824 5826 5826 5826 5826 5826 5826 5826 5827 5827 5828 5829 5830 5829 5829 5828 5828 5829 5829 5827 5825 5823 5821 5820 5820 5819 5817 5816 5815 5814 5813 5813 5812 5811 5810
5817 5817 5818 5818 5818 5820 5820 5820 5822 5822 5821 5822 5822 5823 5823 5824 5824 5824 5825 5826 5827 5827 5826 5825 5827 5827 5827 5825 5823 5822 5819 5818 5817 5816 5815 5813 5812 5811 5811 5811 5810 5807 5806
5811 5810 5810 5811 5813 5815 5814 5815 5815 5816 5817 5816 5818 5819 5819 5819 5819 5822 5823 5824 5824 5824 5824 5825 5825 5827 5824 5823 5821 5819 5819 5816 5814 5813 5811 5810 5809 5808 5806 5806 5804 5803 5803
5806 5805 5804 5804 5806 5806 5806 5808 5809 5810 5811 5812 5812 5814 5814 5815 5816 5817 5820 5821 5823 5824 5825 5823 5821 5823 5822 5819 5817 5814 5814 5813 5811 5809 5807 5805 5806 5804 5803 5804 5803 5800 5798
5800 5798 5798 5798 5799 5799 5799 5799 5801 5804 5805 5807 5808 5811 5810 5810 5812 5816 5818 5820 5822 5823 5822 5820 5818 5818 5817 5815 5812 5810 5809 5807 5805 5804 5803 5802 5802 5800 5799 5798 5798 5797 5796
5794 5795 5795 5793 5796 5794 5792 5793 5799 5799 5799 5802 5805 5806 5806 5808 5812 5815 5817 5818 5821 5821 5819 5817 5817 5814 5812 5810 5807 5805 5803 5801 5800 5799 5799 5798 5795 5794 5794 5792 5791 5790 5790
5786 5780 5784 5786 5787 5785 5787 5791 5794 5794 5797 5800 5803 5803 5806 5810 5813 5815 5815 5817 5818 5817 5816 5814 5812 5809 5806 5804 5803 5801 5799 5796 5795 5794 5793 5793 5791 5789 5787 5786 5785 5784 5782
5790 5786 5786 5786 5783 5781 5784 5789 5792 5794 5796 5799 5800 5804 5807 5810 5811 5813 5814 5814 5814 5814 5814 5811 5808 5805 5803 5801 5798 5797 5793 5792 5790 5788 5788 5786 5785 5783 5781 5780 5778 5776 5774
5789 5785 5784 5788 5789 5789 5789 5791 5791 5792 5794 5795 5799 5803 5807 5808 5812 5813 5814 5812 5812 5812 5809 5806 5804 5801 5799 5796 5793 5791 5790 5787 5785 5782 5780 5778 5777 5775 5774 5771 5769 5768 5767
5784 5786 5784 5784 5789 5783 5782 5786 5788 5788 5791 5796 5800 5803 5806 5808 5809 5809 5809 5809 5809 5806 5804 5802 5799 5797 5796 5793 5790 5787 5784 5782 5780 5778 5775 5771 5768 5765 5764 5762 5760 5758 5757
5781 5783 5785 5785 5785 5783 5784 5786 5788 5793 5795 5799 5801 5803 5805 5805 5806 5806 5806 5806 5802 5802 5800 5798 5796 5795 5792 5789 5785 5783 5780 5777 5774 5771 5768 5765 5762 5759 5756 5753 5751 5750 5748
5779 5780 5780 5781 5784 5786 5789 5792 5791 5796 5799 5800 5800 5802 5802 5804 5804 5804 5802 5801 5799 5799 5797 5795 5792 5790 5786 5783 5780 5777 5774 5771 5768 5765 5762 5759 5755 5753 5750 5746 5743 5740 5739
5778 5780 5784 5786 5789 5790 5791 5791 5795 5797 5797 5797 5799 5800 5800 5798 5799 5800 5800 5799 5797 5795 5794 5790 5788 5784 5781 5777 5773 5769 5767 5763 5760 5757 5753 5750 5747 5744 5742 5740 5736 5733 5730
5782 5786 5788 5790 5792 5792 5794 5795 5797 5796 5796 5796 5797 5799 5797 5799 5799 5799 5797 5797 5794 5791 5788 5785 5780 5778 5774 5770 5766 5762 5759 5756 5752 5748 5744 5741 5737 5735 5732 5729 5726 5724 5721
5787 5790 5791 5793 5794 5794 5793 5795 5794 5794 5794 5795 5796 5796 5796 5795 5796 5795 5794 5793 5791 5787 5784 5780 5777 5772 5767 5762 5759 5755 5752 5748 5744 5739 5735 5731 5727 5724 5721 5717 5715 5713 5711
5787 5789 5790 5790 5791 5791 5791 5790 5792 5793 5794 5794 5793 5792 5792 5793 5792 5792 5791 5789 5785 5782 5779 5775 5770 5765 5760 5754 5749 5746 5742 5738 5733 5729 5725 5720 5716 5712 5709 5707 5705 5702 5700
5787 5787 5790 5790 5790 5790 5789 5789 5790 5791 5791 5791 5792 5792 5791 5790 5790 5789 5786 5783 5780 5776 5772 5768 5762 5756 5750 5744 5739 5734 5730 5726 5722 5718 5713 5709 5705 5701 5699 5695 5692 5689 5687
5788 5789 5790 5789 5788 5788 5787 5787 5787 5788 5789 5789 5790 5789 5787 5788 5785 5783 5780 5777 5773 5769 5764 5758 5751 5745 5741 5735 5729 5724 5720 5715 5710 5705 5701 5697 5693 5689 5684 5681 5678 5674 5671
5788 5786 5787 5787 5787 5787 5786 5785 5786 5787 5787 5787 5786 5786 5784 5781 5779 5777 5774 5769 5764 5759 5753 5747 5741 5737 5732 5725 5719 5713 5708 5703 5698 5693 5689 5684 5679 5675 5670 5665 5660 5656 5651
5783 5783 5784 5783 5783 5783 5783 5784 5784 5783 5783 5783 5782 5779 5777 5775 5772 5769 5764 5759 5754 5748 5741 5737 5732 5726 5720 5714 5707 5702 5697 5691 5685 5681 5677 5672 5666 5660 5654 5648 5642 5637 5632
5779 5780 5780 5780 5781 5779 5780 5780 5780 5779 5778 5777 5775 5772 5769 5767 5763 5759 5753 5748 5743 5738 5734 5728 5722 5716 5709 5703 5697 5691 5685 5680 5675 5669 5663 5658 5652 5644 5637 5631 5623 5617 5610
5777 5775 5776 5777 5776 5775 5776 5775 5775 5774 5772 5770 5768 5765 5762 5758 5754 5749 5744 5739 5735 5729 5723 5716 5709 5704 5697 5692 5686 5679 5672 5667 5661 5657 5650 5642 5635 5627 5619 5610 5601 5594 5587
5774 5772 5773 5773 5772 5772 5773 5772 5772 5769 5768 5765 5762 5758 5754 5750 5745 5740 5735 5730 5724 5718 5710 5704 5698 5692 5684 5678 5672 5666 5660 5654 5647 5641 5634 5626 5618 5608 5599 5590 5580 5571 5563
5772 5771 5770 5770 5769 5769 5769 5768 5767 5765 5763 5759 5755 5750 5745 5740 5736 5730 5725 5719 5712 5705 5698 5693 5686 5680 5673 5666 5659 5652 5645 5638 5631 5623 5615 5607 5601 5591 5580 5568 5557 5550 5543